| time (UTC) | temp F | wind direction | speed MPH | gust MPH | rain 1hr in | rain 24hr in | rain mn in | humidity % | barometer mb |
| 20260507060510 | 49 | 0 | 0.0 | 1.0 | 0.01 | 0.14 | 0.01 | 89 | 1009.0 |
| 20260507060030 | 50 | 0 | 0.0 | 3.0 | 0.01 | 0.14 | 0.01 | 89 | 1008.9 |
| 20260507055512 | 50 | 0 | 0.0 | 3.0 | 0.01 | 0.14 | 0.01 | 89 | 1008.7 |
| 20260507055010 | 50 | 0 | 0.0 | 3.0 | 0.01 | 0.14 | 0.01 | 88 | 1008.7 |
| 20260507054530 | 50 | 0 | 0.0 | 4.0 | 0.01 | 0.14 | 0.01 | 88 | 1008.9 |
| 20260507054013 | 50 | 0 | 0.0 | 4.0 | 0.01 | 0.14 | 0.01 | 87 | 1008.3 |
| 20260507053514 | 50 | 0 | 0.0 | 5.0 | 0.00 | 0.13 | 0.00 | 86 | 1008.4 |
| 20260507053029 | 50 | 263 | 1.0 | 5.0 | 0.00 | 0.13 | 0.00 | 86 | 1008.3 |
| 20260507052510 | 51 | 0 | 1.0 | 5.0 | 0.00 | 0.13 | 0.00 | 85 | 1008.3 |
| 20260507052013 | 51 | 0 | 0.0 | 5.0 | 0.00 | 0.13 | 0.00 | 86 | 1008.2 |
| 20260507051528 | 51 | 311 | 0.0 | 5.0 | 0.00 | 0.13 | 0.00 | 86 | 1008.6 |
| 20260507051013 | 51 | 0 | 1.0 | 5.0 | 0.00 | 0.13 | 0.00 | 85 | 1008.5 |
| 20260507050512 | 51 | 0 | 0.0 | 8.0 | 0.00 | 0.13 | 0.00 | 85 | 1008.7 |
| 20260507050030 | 51 | 0 | 0.0 | 8.0 | 0.00 | 0.13 | 0.00 | 85 | 1008.6 |
| 20260507045513 | 51 | 255 | 0.0 | 7.0 | 0.00 | 0.13 | 0.00 | 85 | 1008.8 |
| 20260507045014 | 51 | 250 | 1.0 | 7.0 | 0.00 | 0.13 | 0.00 | 85 | 1008.9 |
| 20260507044530 | 51 | 294 | 1.0 | 7.0 | 0.00 | 0.13 | 0.00 | 85 | 1008.9 |
| 20260507044010 | 51 | 292 | 1.0 | 5.0 | 0.00 | 0.13 | 0.00 | 85 | 1009.1 |
| 20260507043510 | 51 | 322 | 0.0 | 7.0 | 0.00 | 0.13 | 0.00 | 85 | 1008.9 |
| 20260507043036 | 52 | 0 | 0.0 | 7.0 | 0.00 | 0.13 | 0.00 | 85 | 1009.0 |
| 20260507042512 | 52 | 0 | 1.0 | 7.0 | 0.00 | 0.13 | 0.00 | 85 | 1009.0 |
| 20260507042012 | 52 | 288 | 1.0 | 7.0 | 0.00 | 0.13 | 0.00 | 85 | 1008.9 |
| 20260507041528 | 52 | 293 | 2.0 | 9.0 | 0.00 | 0.13 | 0.00 | 85 | 1009.1 |
| 20260507041013 | 52 | 282 | 0.0 | 9.0 | 0.00 | 0.13 | 0.00 | 85 | 1008.7 |
| 20260507040511 | 52 | 271 | 3.0 | 9.0 | 0.00 | 0.13 | 0.00 | 84 | 1008.6 |
| 20260507040032 | 52 | 295 | 1.0 | 7.0 | 0.00 | 0.13 | 0.00 | 85 | 1008.8 |
| 20260507035511 | 52 | 285 | 3.0 | 7.0 | 0.00 | 0.13 | 0.13 | 84 | 1008.8 |
| 20260507035013 | 52 | 314 | 2.0 | 6.0 | 0.00 | 0.13 | 0.13 | 85 | 1008.9 |
| 20260507034530 | 52 | 292 | 1.0 | 5.0 | 0.00 | 0.13 | 0.13 | 85 | 1008.8 |
| 20260507034013 | 52 | 300 | 2.0 | 4.0 | 0.00 | 0.13 | 0.13 | 85 | 1008.8 |
| 20260507033517 | 52 | 288 | 1.0 | 4.0 | 0.00 | 0.13 | 0.13 | 85 | 1008.9 |
| 20260507033028 | 53 | 247 | 0.0 | 1.0 | 0.00 | 0.13 | 0.13 | 85 | 1008.8 |
| 20260507032515 | 53 | 0 | 0.0 | 3.0 | 0.00 | 0.13 | 0.13 | 85 | 1008.9 |
| 20260507032017 | 53 | 0 | 0.0 | 3.0 | 0.00 | 0.13 | 0.13 | 85 | 1008.8 |
| 20260507031531 | 53 | 0 | 0.0 | 2.0 | 0.00 | 0.13 | 0.13 | 85 | 1008.6 |
| 20260507031011 | 53 | 0 | 0.0 | 3.0 | 0.00 | 0.13 | 0.13 | 84 | 1008.7 |
| 20260507030512 | 53 | 247 | 0.0 | 3.0 | 0.00 | 0.13 | 0.13 | 84 | 1008.8 |
| 20260507030031 | 53 | 0 | 0.0 | 4.0 | 0.00 | 0.13 | 0.13 | 84 | 1008.8 |
| 20260507025511 | 53 | 0 | 1.0 | 4.0 | 0.00 | 0.13 | 0.13 | 84 | 1009.1 |
| 20260507025013 | 53 | 271 | 1.0 | 3.0 | 0.00 | 0.13 | 0.13 | 84 | 1009.2 |
| 20260507024528 | 53 | 0 | 0.0 | 2.0 | 0.00 | 0.13 | 0.13 | 85 | 1009.2 |
| 20260507024010 | 54 | 0 | 0.0 | 3.0 | 0.00 | 0.13 | 0.13 | 84 | 1009.2 |
| 20260507023519 | 54 | 0 | 0.0 | 3.0 | 0.00 | 0.13 | 0.13 | 84 | 1009.2 |
| 20260507023031 | 54 | 0 | 0.0 | 4.0 | 0.00 | 0.13 | 0.13 | 85 | 1009.1 |
| 20260507022510 | 54 | 249 | 0.0 | 4.0 | 0.00 | 0.13 | 0.13 | 85 | 1009.1 |
| 20260507022011 | 54 | 244 | 0.0 | 7.0 | 0.00 | 0.13 | 0.13 | 85 | 1009.4 |
| 20260507021528 | 54 | 0 | 1.0 | 7.0 | 0.00 | 0.13 | 0.13 | 85 | 1009.5 |
| 20260507021015 | 54 | 316 | 1.0 | 4.0 | 0.00 | 0.13 | 0.13 | 85 | 1009.3 |
| 20260507020514 | 54 | 0 | 0.0 | 4.0 | 0.00 | 0.13 | 0.13 | 85 | 1009.1 |
| 20260507020028 | 55 | 267 | 0.0 | 6.0 | 0.00 | 0.13 | 0.13 | 85 | 1009.0 |
| 20260507015510 | 55 | 245 | 2.0 | 6.0 | 0.00 | 0.13 | 0.13 | 84 | 1009.1 |
| 20260507015017 | 55 | 0 | 0.0 | 4.0 | 0.00 | 0.13 | 0.13 | 85 | 1008.9 |
| 20260507014529 | 55 | 0 | 0.0 | 6.0 | 0.00 | 0.13 | 0.13 | 83 | 1008.7 |
| 20260507014010 | 55 | 300 | 1.0 | 6.0 | 0.00 | 0.13 | 0.13 | 84 | 1008.8 |
| 20260507013510 | 55 | 236 | 1.0 | 5.0 | 0.00 | 0.13 | 0.13 | 84 | 1008.8 |
| 20260507013036 | 55 | 232 | 0.0 | 6.0 | 0.00 | 0.13 | 0.13 | 84 | 1008.9 |
| 20260507012516 | 55 | 0 | 1.0 | 8.0 | 0.00 | 0.13 | 0.13 | 83 | 1008.8 |
| 20260507012012 | 56 | 313 | 2.0 | 8.0 | 0.00 | 0.13 | 0.13 | 84 | 1008.7 |
| 20260507011537 | 56 | 5 | 0.0 | 6.0 | 0.00 | 0.13 | 0.13 | 85 | 1008.7 |
| 20260507011010 | 56 | 0 | 0.0 | 6.0 | 0.00 | 0.13 | 0.13 | 85 | 1008.6 |
| 20260507010513 | 56 | 0 | 1.0 | 7.0 | 0.00 | 0.13 | 0.13 | 85 | 1008.4 |
| 20260507010030 | 56 | 223 | 0.0 | 7.0 | 0.01 | 0.13 | 0.13 | 86 | 1008.2 |
| 20260507005515 | 56 | 295 | 0.0 | 12.0 | 0.01 | 0.13 | 0.13 | 86 | 1008.3 |
| 20260507005012 | 56 | 320 | 2.0 | 12.0 | 0.01 | 0.13 | 0.13 | 86 | 1008.0 |
| 20260507004528 | 56 | 308 | 1.0 | 8.0 | 0.01 | 0.13 | 0.13 | 86 | 1007.7 |
| 20260507004013 | 57 | 286 | 2.0 | 6.0 | 0.01 | 0.13 | 0.13 | 87 | 1007.7 |
| 20260507003514 | 57 | 304 | 1.0 | 6.0 | 0.01 | 0.13 | 0.13 | 87 | 1007.5 |
| 20260507003027 | 57 | 302 | 1.0 | 6.0 | 0.01 | 0.13 | 0.13 | 87 | 1007.5 |
| 20260507002513 | 57 | 0 | 2.0 | 6.0 | 0.01 | 0.13 | 0.13 | 88 | 1007.4 |
| 20260507002014 | 57 | 294 | 1.0 | 5.0 | 0.01 | 0.13 | 0.13 | 88 | 1007.3 |
| 20260507001538 | 58 | 311 | 1.0 | 10.0 | 0.01 | 0.13 | 0.13 | 88 | 1007.2 |
| 20260507001012 | 58 | 0 | 2.0 | 12.0 | 0.01 | 0.13 | 0.13 | 87 | 1007.3 |
| 20260507000514 | 59 | 247 | 4.0 | 16.0 | 0.01 | 0.13 | 0.13 | 87 | 1007.3 |
| 20260507000030 | 60 | 309 | 6.0 | 16.0 | 0.00 | 0.12 | 0.12 | 87 | 1007.2 |
| 20260506235512 | 62 | 315 | 3.0 | 8.0 | 0.00 | 0.12 | 0.12 | 92 | 1007.0 |
| 20260506235012 | 62 | 277 | 1.0 | 6.0 | 0.00 | 0.12 | 0.12 | 91 | 1006.5 |
| 20260506234541 | 62 | 0 | 1.0 | 6.0 | 0.00 | 0.12 | 0.12 | 91 | 1006.1 |
| 20260506234013 | 62 | 176 | 1.0 | 8.0 | 0.00 | 0.12 | 0.12 | 91 | 1006.1 |
| 20260506233514 | 62 | 0 | 1.0 | 8.0 | 0.00 | 0.12 | 0.12 | 90 | 1006.2 |
| 20260506233033 | 62 | 224 | 0.0 | 2.0 | 0.00 | 0.12 | 0.12 | 90 | 1006.2 |
| 20260506232511 | 62 | 0 | 0.0 | 6.0 | 0.00 | 0.12 | 0.12 | 90 | 1006.1 |
| 20260506232013 | 62 | 0 | 0.0 | 6.0 | 0.00 | 0.12 | 0.12 | 90 | 1006.0 |
| 20260506231534 | 62 | 230 | 0.0 | 6.0 | 0.00 | 0.12 | 0.12 | 90 | 1006.0 |
| 20260506231014 | 62 | 0 | 1.0 | 8.0 | 0.00 | 0.12 | 0.12 | 90 | 1005.9 |
| 20260506230511 | 62 | 185 | 2.0 | 10.0 | 0.00 | 0.12 | 0.12 | 90 | 1005.9 |
| 20260506230029 | 62 | 0 | 1.0 | 10.0 | 0.00 | 0.12 | 0.12 | 90 | 1006.0 |
| 20260506225513 | 62 | 211 | 0.0 | 8.0 | 0.00 | 0.12 | 0.12 | 90 | 1005.7 |
| 20260506225013 | 62 | 194 | 2.0 | 8.0 | 0.00 | 0.12 | 0.12 | 90 | 1005.8 |
| 20260506224530 | 62 | 198 | 1.0 | 7.0 | 0.00 | 0.12 | 0.12 | 90 | 1005.9 |
| 20260506224014 | 62 | 0 | 1.0 | 7.0 | 0.00 | 0.12 | 0.12 | 90 | 1006.0 |
| 20260506223511 | 62 | 202 | 0.0 | 5.0 | 0.00 | 0.12 | 0.12 | 91 | 1005.9 |
| 20260506223031 | 62 | 0 | 0.0 | 5.0 | 0.00 | 0.12 | 0.12 | 91 | 1005.8 |
| 20260506222514 | 62 | 201 | 1.0 | 5.0 | 0.00 | 0.12 | 0.12 | 92 | 1005.8 |
| 20260506222012 | 62 | 0 | 1.0 | 10.0 | 0.00 | 0.12 | 0.12 | 91 | 1005.6 |
| 20260506221527 | 62 | 188 | 1.0 | 10.0 | 0.00 | 0.12 | 0.12 | 91 | 1005.6 |
| 20260506221012 | 62 | 327 | 1.0 | 8.0 | 0.00 | 0.12 | 0.12 | 91 | 1005.7 |
| 20260506220512 | 62 | 182 | 1.0 | 8.0 | 0.00 | 0.12 | 0.12 | 92 | 1005.7 |
| 20260506220028 | 62 | 275 | 1.0 | 7.0 | 0.00 | 0.12 | 0.12 | 92 | 1005.5 |
| 20260506215513 | 62 | 0 | 1.0 | 5.0 | 0.00 | 0.12 | 0.12 | 91 | 1005.6 |
| 20260506215012 | 62 | 244 | 0.0 | 9.0 | 0.00 | 0.12 | 0.12 | 91 | 1005.6 |
| 20260506214531 | 62 | 0 | 0.0 | 9.0 | 0.00 | 0.12 | 0.12 | 91 | 1005.6 |
| 20260506214013 | 62 | 255 | 0.0 | 9.0 | 0.00 | 0.12 | 0.12 | 91 | 1005.6 |
| 20260506213512 | 62 | 321 | 2.0 | 8.0 | 0.00 | 0.12 | 0.12 | 91 | 1005.7 |
| 20260506213030 | 62 | 257 | 1.0 | 8.0 | 0.00 | 0.12 | 0.12 | 90 | 1005.6 |
| 20260506212517 | 62 | 341 | 1.0 | 8.0 | 0.00 | 0.12 | 0.12 | 90 | 1005.6 |
| 20260506212014 | 62 | 351 | 0.0 | 6.0 | 0.00 | 0.12 | 0.12 | 90 | 1005.6 |
| 20260506211529 | 62 | 0 | 1.0 | 8.0 | 0.00 | 0.12 | 0.12 | 91 | 1005.5 |
| 20260506211014 | 62 | 143 | 2.0 | 8.0 | 0.00 | 0.12 | 0.12 | 91 | 1005.3 |
| 20260506210514 | 62 | 0 | 1.0 | 8.0 | 0.00 | 0.12 | 0.12 | 91 | 1005.2 |
| 20260506210031 | 62 | 0 | 0.0 | 8.0 | 0.00 | 0.12 | 0.12 | 91 | 1005.4 |
| 20260506205515 | 62 | 157 | 0.0 | 8.0 | 0.00 | 0.12 | 0.12 | 91 | 1005.4 |
| 20260506205013 | 62 | 272 | 1.0 | 8.0 | 0.00 | 0.12 | 0.12 | 91 | 1005.4 |
| 20260506204534 | 62 | 273 | 0.0 | 5.0 | 0.00 | 0.12 | 0.12 | 91 | 1005.4 |
| 20260506204016 | 62 | 0 | 0.0 | 6.0 | 0.00 | 0.12 | 0.12 | 91 | 1005.4 |
| 20260506203516 | 62 | 0 | 0.0 | 6.0 | 0.00 | 0.12 | 0.12 | 91 | 1005.4 |
| 20260506203048 | 63 | 0 | 1.0 | 6.0 | 0.00 | 0.12 | 0.12 | 92 | 1005.3 |
| 20260506202512 | 63 | 0 | 0.0 | 2.0 | 0.00 | 0.12 | 0.12 | 92 | 1005.3 |
| 20260506202011 | 63 | 0 | 0.0 | 3.0 | 0.01 | 0.12 | 0.12 | 92 | 1005.3 |
| 20260506201528 | 63 | 279 | 0.0 | 3.0 | 0.01 | 0.12 | 0.12 | 92 | 1005.3 |
| 20260506201012 | 63 | 251 | 0.0 | 3.0 | 0.01 | 0.12 | 0.12 | 93 | 1005.2 |
| 20260506200513 | 62 | 250 | 0.0 | 3.0 | 0.01 | 0.12 | 0.12 | 93 | 1005.3 |
| 20260506200043 | 62 | 0 | 0.0 | 5.0 | 0.01 | 0.12 | 0.12 | 93 | 1005.5 |
| 20260506195511 | 62 | 0 | 0.0 | 5.0 | 0.01 | 0.12 | 0.12 | 93 | 1005.6 |
| 20260506195012 | 62 | 0 | 0.0 | 6.0 | 0.01 | 0.12 | 0.12 | 92 | 1005.6 |
| 20260506194528 | 62 | 0 | 1.0 | 6.0 | 0.01 | 0.12 | 0.12 | 92 | 1005.8 |
| 20260506194010 | 63 | 0 | 0.0 | 3.0 | 0.01 | 0.12 | 0.12 | 92 | 1005.7 |
| 20260506193513 | 63 | 225 | 0.0 | 4.0 | 0.01 | 0.12 | 0.12 | 93 | 1005.8 |
| 20260506193029 | 63 | 0 | 0.0 | 4.0 | 0.01 | 0.12 | 0.12 | 93 | 1005.8 |
| 20260506192511 | 62 | 0 | 0.0 | 5.0 | 0.02 | 0.12 | 0.12 | 93 | 1005.8 |
| 20260506192014 | 62 | 0 | 1.0 | 5.0 | 0.01 | 0.11 | 0.11 | 93 | 1006.0 |
| 20260506191531 | 62 | 0 | 0.0 | 4.0 | 0.01 | 0.11 | 0.11 | 93 | 1006.0 |
| 20260506191010 | 62 | 0 | 1.0 | 4.0 | 0.01 | 0.11 | 0.11 | 93 | 1006.1 |
| 20260506190514 | 62 | 0 | 0.0 | 6.0 | 0.01 | 0.11 | 0.11 | 93 | 1006.1 |
| 20260506190036 | 62 | 211 | 0.0 | 6.0 | 0.01 | 0.11 | 0.11 | 93 | 1006.1 |
| 20260506185510 | 62 | 0 | 0.0 | 4.0 | 0.01 | 0.11 | 0.11 | 93 | 1006.2 |
| 20260506185011 | 62 | 0 | 1.0 | 4.0 | 0.01 | 0.11 | 0.11 | 92 | 1006.2 |
| 20260506184528 | 62 | 0 | 0.0 | 6.0 | 0.02 | 0.11 | 0.11 | 93 | 1006.3 |
| 20260506184012 | 61 | 0 | 0.0 | 6.0 | 0.03 | 0.11 | 0.11 | 92 | 1006.4 |
| 20260506183512 | 61 | 0 | 0.0 | 5.0 | 0.04 | 0.11 | 0.11 | 92 | 1006.4 |
| 20260506183030 | 61 | 0 | 0.0 | 8.0 | 0.05 | 0.11 | 0.11 | 92 | 1006.5 |
| 20260506182512 | 61 | 0 | 0.0 | 9.0 | 0.04 | 0.10 | 0.10 | 92 | 1006.6 |
| 20260506182017 | 61 | 229 | 2.0 | 9.0 | 0.05 | 0.10 | 0.10 | 92 | 1006.6 |
| 20260506181528 | 61 | 223 | 0.0 | 5.0 | 0.06 | 0.10 | 0.10 | 92 | 1006.6 |
| 20260506181013 | 61 | 0 | 0.0 | 8.0 | 0.07 | 0.10 | 0.10 | 92 | 1006.6 |
| 20260506180512 | 61 | 213 | 1.0 | 10.0 | 0.07 | 0.10 | 0.10 | 92 | 1006.6 |
| 20260506180029 | 61 | 0 | 0.0 | 11.0 | 0.07 | 0.10 | 0.10 | 92 | 1006.6 |
| 20260506175512 | 61 | 0 | 1.0 | 11.0 | 0.07 | 0.10 | 0.10 | 91 | 1006.7 |
| 20260506175010 | 61 | 0 | 1.0 | 8.0 | 0.07 | 0.10 | 0.10 | 91 | 1006.8 |
| 20260506174530 | 61 | 0 | 1.0 | 8.0 | 0.06 | 0.09 | 0.09 | 90 | 1006.8 |
| 20260506174013 | 62 | 305 | 2.0 | 8.0 | 0.05 | 0.08 | 0.08 | 90 | 1006.8 |
| 20260506173511 | 62 | 201 | 1.0 | 6.0 | 0.04 | 0.07 | 0.07 | 90 | 1006.8 |
| 20260506173037 | 62 | 0 | 1.0 | 6.0 | 0.03 | 0.06 | 0.06 | 89 | 1006.7 |
| 20260506172511 | 62 | 171 | 0.0 | 9.0 | 0.04 | 0.06 | 0.06 | 89 | 1006.7 |
| 20260506172013 | 62 | 233 | 2.0 | 9.0 | 0.04 | 0.05 | 0.05 | 89 | 1006.7 |
| 20260506171532 | 62 | 188 | 1.0 | 8.0 | 0.03 | 0.04 | 0.04 | 89 | 1006.8 |
| 20260506171013 | 62 | 15 | 0.0 | 8.0 | 0.02 | 0.03 | 0.03 | 88 | 1006.6 |
| 20260506170516 | 62 | 205 | 0.0 | 8.0 | 0.03 | 0.03 | 0.03 | 88 | 1006.7 |
| 20260506170028 | 62 | 178 | 0.0 | 8.0 | 0.03 | 0.03 | 0.03 | 89 | 1006.6 |
| 20260506165513 | 63 | 0 | 0.0 | 6.0 | 0.03 | 0.03 | 0.03 | 89 | 1006.8 |
| 20260506165014 | 63 | 180 | 1.0 | 6.0 | 0.03 | 0.03 | 0.03 | 89 | 1006.9 |
| 20260506164529 | 63 | 0 | 0.0 | 7.0 | 0.03 | 0.03 | 0.03 | 89 | 1006.8 |
| 20260506164013 | 63 | 161 | 0.0 | 7.0 | 0.03 | 0.03 | 0.03 | 89 | 1006.7 |
| 20260506163511 | 63 | 169 | 0.0 | 5.0 | 0.03 | 0.03 | 0.03 | 89 | 1006.8 |
| 20260506163050 | 63 | 0 | 0.0 | 5.0 | 0.03 | 0.03 | 0.03 | 88 | 1006.6 |
| 20260506162512 | 63 | 192 | 0.0 | 4.0 | 0.02 | 0.02 | 0.02 | 87 | 1007.0 |
| 20260506162017 | 63 | 119 | 0.0 | 5.0 | 0.01 | 0.01 | 0.01 | 86 | 1007.4 |
| 20260506161530 | 63 | 0 | 0.0 | 5.0 | 0.01 | 0.01 | 0.01 | 85 | 1007.5 |
| 20260506161011 | 63 | 0 | 1.0 | 5.0 | 0.01 | 0.01 | 0.01 | 85 | 1007.6 |
| 20260506160512 | 64 | 0 | 0.0 | 3.0 | 0.00 | 0.00 | 0.00 | 85 | 1007.5 |
| 20260506160030 | 64 | 0 | 0.0 | 4.0 | 0.00 | 0.00 | 0.00 | 84 | 1007.6 |
| 20260506155512 | 64 | 0 | 0.0 | 5.0 | 0.00 | 0.00 | 0.00 | 83 | 1007.6 |
| 20260506155011 | 64 | 186 | 1.0 | 6.0 | 0.00 | 0.00 | 0.00 | 82 | 1007.6 |
| 20260506154536 | 65 | 0 | 0.0 | 6.0 | 0.00 | 0.00 | 0.00 | 81 | 1007.4 |
| 20260506154013 | 65 | 0 | 0.0 | 6.0 | 0.00 | 0.00 | 0.00 | 80 | 1007.4 |
| 20260506153512 | 65 | 0 | 1.0 | 6.0 | 0.00 | 0.00 | 0.00 | 80 | 1007.6 |
| 20260506153032 | 65 | 0 | 0.0 | 7.0 | 0.00 | 0.00 | 0.00 | 79 | 1007.7 |
| 20260506152515 | 65 | 0 | 2.0 | 7.0 | 0.00 | 0.00 | 0.00 | 78 | 1007.7 |
| 20260506152016 | 65 | 0 | 0.0 | 3.0 | 0.00 | 0.00 | 0.00 | 78 | 1007.7 |
| 20260506151537 | 66 | 236 | 0.0 | 5.0 | 0.00 | 0.00 | 0.00 | 77 | 1007.9 |
| 20260506151011 | 66 | 0 | 0.0 | 10.0 | 0.00 | 0.00 | 0.00 | 77 | 1008.0 |
| 20260506150513 | 66 | 201 | 1.0 | 10.0 | 0.00 | 0.00 | 0.00 | 75 | 1008.0 |
| 20260506150032 | 66 | 179 | 1.0 | 10.0 | 0.00 | 0.00 | 0.00 | 74 | 1008.0 |
| 20260506145511 | 66 | 250 | 2.0 | 7.0 | 0.00 | 0.00 | 0.00 | 74 | 1008.0 |
| 20260506145010 | 66 | 0 | 0.0 | 8.0 | 0.00 | 0.00 | 0.00 | 74 | 1008.0 |
| 20260506144531 | 67 | 188 | 1.0 | 8.0 | 0.00 | 0.00 | 0.00 | 74 | 1008.0 |
| 20260506144011 | 66 | 205 | 1.0 | 8.0 | 0.00 | 0.00 | 0.00 | 74 | 1007.9 |
| 20260506143513 | 66 | 191 | 0.0 | 6.0 | 0.00 | 0.00 | 0.00 | 74 | 1008.0 |
| 20260506143031 | 66 | 189 | 1.0 | 6.0 | 0.00 | 0.00 | 0.00 | 74 | 1007.8 |
| 20260506142510 | 66 | 213 | 1.0 | 6.0 | 0.00 | 0.00 | 0.00 | 74 | 1007.8 |
| 20260506142013 | 66 | 0 | 2.0 | 7.0 | 0.00 | 0.00 | 0.00 | 74 | 1007.8 |
| 20260506141530 | 66 | 0 | 1.0 | 10.0 | 0.00 | 0.00 | 0.00 | 74 | 1007.9 |
| 20260506141016 | 66 | 166 | 2.0 | 10.0 | 0.00 | 0.00 | 0.00 | 74 | 1007.9 |
| 20260506140513 | 66 | 238 | 2.0 | 8.0 | 0.00 | 0.00 | 0.00 | 73 | 1007.9 |
| 20260506140033 | 66 | 193 | 3.0 | 8.0 | 0.00 | 0.00 | 0.00 | 73 | 1008.0 |
| 20260506135514 | 67 | 257 | 2.0 | 10.0 | 0.00 | 0.00 | 0.00 | 73 | 1008.0 |
| 20260506135014 | 67 | 191 | 1.0 | 10.0 | 0.00 | 0.00 | 0.00 | 73 | 1008.0 |
| 20260506134528 | 66 | 190 | 2.0 | 9.0 | 0.00 | 0.00 | 0.00 | 74 | 1008.0 |
| 20260506134017 | 66 | 185 | 3.0 | 9.0 | 0.00 | 0.00 | 0.00 | 73 | 1007.9 |
| 20260506133512 | 66 | 211 | 2.0 | 13.0 | 0.00 | 0.00 | 0.00 | 74 | 1007.9 |
| 20260506133029 | 66 | 184 | 3.0 | 13.0 | 0.00 | 0.00 | 0.00 | 74 | 1007.7 |
| 20260506132515 | 66 | 233 | 3.0 | 11.0 | 0.00 | 0.00 | 0.00 | 74 | 1007.6 |
| 20260506132012 | 66 | 206 | 4.0 | 11.0 | 0.00 | 0.00 | 0.00 | 74 | 1007.6 |
| 20260506131535 | 66 | 211 | 3.0 | 10.0 | 0.00 | 0.00 | 0.00 | 74 | 1007.7 |
| 20260506131013 | 66 | 185 | 4.0 | 10.0 | 0.00 | 0.00 | 0.00 | 75 | 1007.7 |
| 20260506130517 | 66 | 186 | 1.0 | 10.0 | 0.00 | 0.00 | 0.00 | 74 | 1007.7 |
| 20260506130030 | 66 | 96 | 2.0 | 10.0 | 0.00 | 0.00 | 0.00 | 75 | 1007.7 |
| 20260506125510 | 66 | 0 | 0.0 | 6.0 | 0.00 | 0.00 | 0.00 | 75 | 1007.4 |
| 20260506125013 | 66 | 0 | 0.0 | 7.0 | 0.00 | 0.00 | 0.00 | 75 | 1007.5 |
| 20260506124528 | 66 | 210 | 1.0 | 8.0 | 0.00 | 0.00 | 0.00 | 75 | 1007.4 |
| 20260506124010 | 66 | 182 | 2.0 | 8.0 | 0.00 | 0.00 | 0.00 | 74 | 1007.5 |
| 20260506123515 | 66 | 257 | 1.0 | 7.0 | 0.00 | 0.00 | 0.00 | 74 | 1007.4 |
| 20260506123028 | 66 | 190 | 2.0 | 7.0 | 0.00 | 0.00 | 0.00 | 74 | 1007.7 |
| 20260506122511 | 66 | 188 | 1.0 | 7.0 | 0.00 | 0.00 | 0.00 | 75 | 1007.8 |
| 20260506122013 | 66 | 170 | 1.0 | 9.0 | 0.00 | 0.00 | 0.00 | 75 | 1007.8 |
| 20260506121529 | 66 | 246 | 1.0 | 9.0 | 0.00 | 0.00 | 0.00 | 75 | 1007.8 |
| 20260506121011 | 66 | 0 | 2.0 | 9.0 | 0.00 | 0.00 | 0.00 | 75 | 1007.8 |
| 20260506120511 | 66 | 242 | 2.0 | 7.0 | 0.00 | 0.00 | 0.00 | 75 | 1007.6 |
| 20260506120028 | 66 | 210 | 0.0 | 4.0 | 0.00 | 0.00 | 0.00 | 76 | 1007.7 |
| 20260506115510 | 66 | 190 | 0.0 | 7.0 | 0.00 | 0.01 | 0.00 | 75 | 1007.8 |
| 20260506115013 | 66 | 185 | 1.0 | 12.0 | 0.00 | 0.01 | 0.00 | 75 | 1007.9 |
| 20260506114530 | 66 | 143 | 2.0 | 12.0 | 0.00 | 0.01 | 0.00 | 75 | 1007.8 |
| 20260506114014 | 66 | 186 | 1.0 | 7.0 | 0.00 | 0.01 | 0.00 | 76 | 1007.9 |
| 20260506113513 | 65 | 0 | 0.0 | 5.0 | 0.00 | 0.01 | 0.00 | 76 | 1007.8 |
| 20260506113030 | 65 | 0 | 0.0 | 5.0 | 0.00 | 0.01 | 0.00 | 77 | 1007.8 |
| 20260506112512 | 65 | 0 | 0.0 | 5.0 | 0.00 | 0.01 | 0.00 | 77 | 1007.5 |
| 20260506112010 | 65 | 0 | 0.0 | 6.0 | 0.00 | 0.01 | 0.00 | 77 | 1007.6 |
| 20260506111533 | 65 | 0 | 1.0 | 6.0 | 0.00 | 0.01 | 0.00 | 76 | 1007.6 |
| 20260506111013 | 65 | 108 | 0.0 | 8.0 | 0.00 | 0.01 | 0.00 | 77 | 1007.7 |
| 20260506110512 | 65 | 213 | 2.0 | 8.0 | 0.00 | 0.01 | 0.00 | 77 | 1007.6 |
| 20260506110031 | 65 | 94 | 1.0 | 8.0 | 0.00 | 0.01 | 0.00 | 77 | 1007.6 |
| 20260506105512 | 64 | 180 | 0.0 | 4.0 | 0.00 | 0.06 | 0.00 | 77 | 1007.6 |
| 20260506105013 | 64 | 0 | 0.0 | 3.0 | 0.00 | 0.06 | 0.00 | 78 | 1007.6 |
| 20260506104528 | 65 | 0 | 0.0 | 4.0 | 0.00 | 0.06 | 0.00 | 77 | 1007.7 |
| 20260506104016 | 65 | 0 | 0.0 | 4.0 | 0.00 | 0.06 | 0.00 | 77 | 1007.7 |
| 20260506103513 | 65 | 0 | 0.0 | 6.0 | 0.00 | 0.06 | 0.00 | 77 | 1007.7 |
| 20260506103028 | 64 | 0 | 0.0 | 6.0 | 0.00 | 0.06 | 0.00 | 77 | 1007.7 |
| 20260506102511 | 64 | 0 | 1.0 | 4.0 | 0.00 | 0.06 | 0.00 | 78 | 1007.6 |
| 20260506102011 | 64 | 0 | 0.0 | 3.0 | 0.00 | 0.06 | 0.00 | 78 | 1007.5 |
| 20260506101528 | 64 | 0 | 0.0 | 5.0 | 0.00 | 0.06 | 0.00 | 78 | 1007.5 |
| 20260506101013 | 64 | 0 | 0.0 | 6.0 | 0.00 | 0.06 | 0.00 | 77 | 1007.4 |
| 20260506100513 | 64 | 0 | 0.0 | 6.0 | 0.00 | 0.06 | 0.00 | 77 | 1007.5 |
| 20260506100031 | 64 | 190 | 1.0 | 6.0 | 0.00 | 0.06 | 0.00 | 77 | 1007.3 |
| 20260506095513 | 64 | 179 | 1.0 | 6.0 | 0.00 | 0.06 | 0.00 | 77 | 1007.4 |
| 20260506095015 | 64 | 177 | 0.0 | 5.0 | 0.00 | 0.06 | 0.00 | 77 | 1007.3 |
| 20260506094528 | 64 | 0 | 0.0 | 5.0 | 0.00 | 0.06 | 0.00 | 77 | 1007.3 |
| 20260506094010 | 64 | 0 | 0.0 | 5.0 | 0.00 | 0.06 | 0.00 | 77 | 1007.5 |
| 20260506093516 | 64 | 0 | 0.0 | 2.0 | 0.00 | 0.06 | 0.00 | 76 | 1007.6 |
| 20260506093029 | 64 | 0 | 0.0 | 4.0 | 0.00 | 0.06 | 0.00 | 76 | 1007.7 |
| 20260506092513 | 64 | 200 | 0.0 | 5.0 | 0.00 | 0.06 | 0.00 | 76 | 1007.6 |
| 20260506092010 | 64 | 201 | 2.0 | 5.0 | 0.00 | 0.06 | 0.00 | 76 | 1007.5 |
| 20260506091530 | 64 | 0 | 0.0 | 5.0 | 0.00 | 0.06 | 0.00 | 75 | 1007.6 |
| 20260506091015 | 64 | 0 | 0.0 | 7.0 | 0.00 | 0.06 | 0.00 | 75 | 1007.5 |
| 20260506090509 | 64 | 0 | 0.0 | 7.0 | 0.00 | 0.06 | 0.00 | 75 | 1007.5 |
| 20260506090028 | 64 | 146 | 0.0 | 7.0 | 0.00 | 0.06 | 0.00 | 74 | 1007.4 |
| 20260506085510 | 64 | 0 | 0.0 | 7.0 | 0.00 | 0.06 | 0.00 | 73 | 1007.5 |
| 20260506085011 | 65 | 0 | 0.0 | 1.0 | 0.00 | 0.06 | 0.00 | 72 | 1007.5 |
| 20260506084536 | 65 | 0 | 0.0 | 4.0 | 0.00 | 0.06 | 0.00 | 71 | 1007.5 |
| 20260506084013 | 65 | 0 | 0.0 | 4.0 | 0.00 | 0.06 | 0.00 | 71 | 1007.6 |
| 20260506083511 | 65 | 0 | 0.0 | 5.0 | 0.00 | 0.06 | 0.00 | 71 | 1007.7 |
| 20260506083032 | 66 | 0 | 0.0 | 8.0 | 0.00 | 0.06 | 0.00 | 70 | 1007.7 |
| 20260506082510 | 66 | 0 | 0.0 | 8.0 | 0.00 | 0.06 | 0.00 | 70 | 1007.7 |
| 20260506082011 | 65 | 180 | 1.0 | 8.0 | 0.00 | 0.06 | 0.00 | 70 | 1007.7 |
| 20260506081527 | 65 | 0 | 0.0 | 7.0 | 0.00 | 0.06 | 0.00 | 70 | 1007.7 |
| 20260506081012 | 65 | 196 | 0.0 | 7.0 | 0.00 | 0.06 | 0.00 | 70 | 1007.8 |
| 20260506080514 | 64 | 193 | 0.0 | 4.0 | 0.00 | 0.06 | 0.00 | 70 | 1007.7 |
| 20260506073516 | 65 | 0 | 0.0 | 4.0 | 0.00 | 0.06 | 0.00 | 68 | 1007.6 |
| 20260506073030 | 65 | 0 | 0.0 | 4.0 | 0.00 | 0.06 | 0.00 | 69 | 1007.7 |
| 20260506072512 | 66 | 0 | 0.0 | 1.0 | 0.00 | 0.06 | 0.00 | 68 | 1007.6 |
| 20260506072011 | 66 | 0 | 0.0 | 2.0 | 0.00 | 0.06 | 0.00 | 66 | 1007.8 |
| 20260506071528 | 66 | 0 | 0.0 | 2.0 | 0.00 | 0.06 | 0.00 | 66 | 1007.8 |
| 20260506071010 | 66 | 0 | 0.0 | 3.0 | 0.00 | 0.06 | 0.00 | 66 | 1007.8 |
| 20260506070513 | 67 | 0 | 0.0 | 5.0 | 0.00 | 0.06 | 0.00 | 66 | 1007.9 |
| 20260506062516 | 69 | 0 | 0.0 | 5.0 | 0.00 | 0.06 | 0.00 | 61 | 1008.1 |
| 20260506062012 | 68 | 0 | 0.0 | 5.0 | 0.00 | 0.06 | 0.00 | 61 | 1008.0 |
| 20260506061528 | 68 | 205 | 0.0 | 4.0 | 0.00 | 0.06 | 0.00 | 61 | 1008.0 |
| 20260506061013 | 69 | 0 | 0.0 | 9.0 | 0.00 | 0.06 | 0.00 | 61 | 1008.1 |